When you browse on this site, cookies collect data to enhance your experience and personalize the content and advertising you see.
Visit our Privacy Policy to learn more. By continuing to use the site, you agree to this use of cookies and data.
  • In Latvia
  • List of Countries
  • For 7 days
  • Water Temperature
  • Weather Map
  • Weather Widgets
  • user-avatar
    Login

    Hourly Weather Usole

    Today, 4 June, Thursday

    Time Temperature Precipitation Wind Pressure Humidity
    00:00 +16°C° 0.2 mm 7 mps 749 mmHg 90%
    01:00 +16°C° 0.4 mm 7 mps 748 mmHg 89%
    02:00 +16°C° 0.4 mm 7 mps 748 mmHg 89%
    03:00 +16°C° 0 mm 5 mps 748 mmHg 89%
    04:00 +16°C° 0.5 mm 5 mps 748 mmHg 89%
    05:00 +16°C° 0.5 mm 5 mps 747 mmHg 88%
    06:00 +16°C° 0.5 mm 6 mps 747 mmHg 88%
    07:00 +17°C° 1.1 mm 6 mps 747 mmHg 88%
    08:00 +18°C° 1.1 mm 7 mps 747 mmHg 88%
    09:00 +20°C° 0 mm 8 mps 747 mmHg 89%
    10:00 +20°C° 1 mm 8 mps 747 mmHg 88%
    11:00 +20°C° 1 mm 8 mps 747 mmHg 87%
    12:00 +21°C° 1 mm 8 mps 747 mmHg 86%
    13:00 +20°C° 1.5 mm 7 mps 747 mmHg 87%
    14:00 +20°C° 1.5 mm 6 mps 747 mmHg 89%
    15:00 +20°C° 1.5 mm 5 mps 747 mmHg 90%
    16:00 +20°C° 0.2 mm 4 mps 748 mmHg 88%
    17:00 +20°C° 0.2 mm 3 mps 748 mmHg 87%
    18:00 +20°C° 0.2 mm 2 mps 748 mmHg 85%
    19:00 +19°C° 0 mm 2 mps 749 mmHg 87%
    20:00 +17°C° 0 mm 2 mps 750 mmHg 89%
    21:00 +16°C° 0 mm 1 mps 750 mmHg 90%
    22:00 +16°C° 0 mm 1 mps 751 mmHg 91%
    23:00 +16°C° 0 mm 1 mps 751 mmHg 92%

    Tomorrow, 5 June, Friday

    Time Temperature Precipitation Wind Pressure Humidity
    00:00 +16°C° 0 mm 1 mps 752 mmHg 93%
    01:00 +15°C° 0 mm 1 mps 752 mmHg 92%
    02:00 +15°C° 0 mm 1 mps 752 mmHg 92%
    03:00 +14°C° 0 mm 0 mps 753 mmHg 92%
    04:00 +15°C° 0 mm 0 mps 753 mmHg 91%
    05:00 +16°C° 0 mm 0 mps 753 mmHg 89%
    06:00 +17°C° 0 mm 0 mps 753 mmHg 88%
    07:00 +18°C° 0.1 mm 0 mps 753 mmHg 84%
    08:00 +21°C° 0.1 mm 1 mps 753 mmHg 80%
    09:00 +22°C° 0.1 mm 1 mps 754 mmHg 75%
    10:00 +23°C° 0.2 mm 1 mps 753 mmHg 72%
    11:00 +24°C° 0.2 mm 1 mps 753 mmHg 68%
    12:00 +24°C° 0.2 mm 2 mps 753 mmHg 64%
    13:00 +25°C° 0.2 mm 2 mps 753 mmHg 63%
    14:00 +25°C° 0.2 mm 2 mps 753 mmHg 63%
    15:00 +25°C° 0.2 mm 2 mps 753 mmHg 62%
    16:00 +24°C° 0.5 mm 2 mps 753 mmHg 68%
    17:00 +24°C° 0.5 mm 2 mps 753 mmHg 73%
    18:00 +23°C° 0.5 mm 2 mps 753 mmHg 79%
    19:00 +21°C° 0.4 mm 2 mps 753 mmHg 81%
    20:00 +20°C° 0.4 mm 2 mps 753 mmHg 83%
    21:00 +18°C° 0.4 mm 2 mps 753 mmHg 85%
    22:00 +18°C° 0 mm 2 mps 753 mmHg 87%
    23:00 +17°C° 0 mm 2 mps 753 mmHg 88%

    Day after tomorrow, 6 June, Saturday

    Time Temperature Precipitation Wind Pressure Humidity
    00:00 +17°C° 0 mm 2 mps 753 mmHg 90%
    01:00 +16°C° 0 mm 2 mps 753 mmHg 91%
    02:00 +15°C° 0 mm 2 mps 754 mmHg 92%
    03:00 +15°C° 0 mm 2 mps 754 mmHg 93%
    04:00 +15°C° 0 mm 2 mps 754 mmHg 91%
    05:00 +16°C° 0 mm 2 mps 754 mmHg 90%
    06:00 +17°C° 0 mm 2 mps 754 mmHg 88%
    07:00 +18°C° 0 mm 2 mps 754 mmHg 83%
    08:00 +19°C° 0 mm 3 mps 755 mmHg 78%
    09:00 +21°C° 0 mm 3 mps 755 mmHg 74%
    10:00 +21°C° 0 mm 3 mps 755 mmHg 70%
    11:00 +22°C° 0 mm 3 mps 755 mmHg 66%
    12:00 +24°C° 0 mm 3 mps 755 mmHg 63%
    13:00 +22°C° 0.4 mm 3 mps 755 mmHg 65%
    14:00 +22°C° 0.4 mm 3 mps 755 mmHg 68%
    15:00 +22°C° 0.4 mm 3 mps 755 mmHg 71%
    16:00 +22°C° 0.5 mm 3 mps 755 mmHg 75%
    17:00 +22°C° 0.5 mm 3 mps 755 mmHg 78%
    18:00 +21°C° 0.5 mm 2 mps 755 mmHg 82%
    19:00 +20°C° 0.3 mm 2 mps 755 mmHg 84%
    20:00 +19°C° 0.3 mm 2 mps 755 mmHg 87%
    21:00 +17°C° 0.3 mm 2 mps 755 mmHg 90%
    22:00 +17°C° 0.1 mm 2 mps 756 mmHg 91%
    23:00 +16°C° 0.1 mm 2 mps 756 mmHg 92%

    7 June, Sunday

    Time Temperature Precipitation Wind Pressure Humidity
    00:00 +16°C° 0.1 mm 1 mps 756 mmHg 93%
    01:00 +16°C° 0 mm 1 mps 756 mmHg 93%
    02:00 +15°C° 0 mm 1 mps 756 mmHg 93%
    03:00 +15°C° 0 mm 1 mps 756 mmHg 94%
    04:00 +16°C° 0 mm 1 mps 757 mmHg 92%
    05:00 +18°C° 0 mm 1 mps 757 mmHg 90%
    06:00 +17°C° 0 mm 0 mps 757 mmHg 89%
    07:00 +18°C° 0 mm 0 mps 757 mmHg 84%
    08:00 +20°C° 0 mm 0 mps 757 mmHg 80%
    09:00 +23°C° 0 mm 1 mps 757 mmHg 75%
    10:00 +24°C° 0 mm 1 mps 757 mmHg 71%
    11:00 +24°C° 0 mm 1 mps 757 mmHg 67%
    12:00 +25°C° 0 mm 1 mps 757 mmHg 62%
    13:00 +25°C° 0.1 mm 1 mps 757 mmHg 62%
    14:00 +25°C° 0.1 mm 1 mps 757 mmHg 62%
    15:00 +25°C° 0.1 mm 1 mps 757 mmHg 62%
    16:00 +25°C° 0.1 mm 1 mps 757 mmHg 67%
    17:00 +23°C° 0.1 mm 0 mps 757 mmHg 72%
    18:00 +22°C° 0.1 mm 0 mps 757 mmHg 76%
    19:00 +21°C° 0.4 mm 0 mps 757 mmHg 79%
    20:00 +20°C° 0.4 mm 0 mps 757 mmHg 81%
    21:00 +21°C° 0.4 mm 1 mps 757 mmHg 83%
    22:00 +20°C° 0.9 mm 1 mps 757 mmHg 84%
    23:00 +20°C° 0.9 mm 1 mps 757 mmHg 85%

    8 June, Monday

    Time Temperature Precipitation Wind Pressure Humidity
    00:00 +19°C° 0.9 mm 1 mps 757 mmHg 86%
    01:00 +19°C° 0.3 mm 1 mps 757 mmHg 86%
    02:00 +18°C° 0.3 mm 1 mps 757 mmHg 86%
    03:00 +18°C° 0.3 mm 1 mps 757 mmHg 85%
    04:00 +19°C° 0 mm 1 mps 757 mmHg 84%
    05:00 +20°C° 0 mm 1 mps 757 mmHg 82%
    06:00 +20°C° 0 mm 1 mps 757 mmHg 80%
    07:00 +21°C° 0 mm 1 mps 757 mmHg 76%
    08:00 +22°C° 0 mm 1 mps 757 mmHg 72%
    09:00 +23°C° 0 mm 1 mps 757 mmHg 69%
    10:00 +24°C° 0 mm 1 mps 757 mmHg 66%
    11:00 +25°C° 0 mm 1 mps 757 mmHg 63%
    12:00 +26°C° 0 mm 1 mps 757 mmHg 61%
    13:00 +26°C° 0.2 mm 1 mps 756 mmHg 62%
    14:00 +25°C° 0.2 mm 1 mps 756 mmHg 63%
    15:00 +25°C° 0.2 mm 1 mps 756 mmHg 65%
    16:00 +25°C° 0.4 mm 2 mps 756 mmHg 70%
    17:00 +24°C° 0.4 mm 2 mps 756 mmHg 75%
    18:00 +23°C° 0.4 mm 2 mps 756 mmHg 80%
    19:00 +21°C° 0.1 mm 2 mps 756 mmHg 83%
    20:00 +21°C° 0.1 mm 1 mps 756 mmHg 85%
    21:00 +19°C° 0.1 mm 1 mps 756 mmHg 88%
    22:00 +19°C° 0 mm 1 mps 756 mmHg 89%
    23:00 +19°C° 0 mm 1 mps 756 mmHg 89%

    9 June, Tuesday

    Time Temperature Precipitation Wind Pressure Humidity
    00:00 +18°C° 0 mm 1 mps 756 mmHg 89%
    01:00 +17°C° 0 mm 2 mps 756 mmHg 90%
    02:00 +16°C° 0 mm 2 mps 757 mmHg 90%
    03:00 +16°C° 0 mm 2 mps 757 mmHg 91%
    04:00 +17°C° 0 mm 2 mps 757 mmHg 88%
    05:00 +18°C° 0 mm 3 mps 757 mmHg 86%
    06:00 +19°C° 0 mm 3 mps 757 mmHg 84%
    07:00 +20°C° 0 mm 3 mps 757 mmHg 80%
    08:00 +21°C° 0 mm 3 mps 757 mmHg 75%
    09:00 +24°C° 0 mm 3 mps 757 mmHg 71%
    10:00 +24°C° 0.5 mm 3 mps 757 mmHg 69%
    11:00 +25°C° 0.5 mm 4 mps 758 mmHg 67%
    12:00 +25°C° 0.5 mm 4 mps 758 mmHg 65%
    13:00 +25°C° 0.6 mm 4 mps 757 mmHg 66%
    14:00 +25°C° 0.6 mm 4 mps 757 mmHg 67%
    15:00 +25°C° 0.6 mm 4 mps 757 mmHg 68%
    16:00 +25°C° 0.4 mm 3 mps 757 mmHg 71%
    17:00 +24°C° 0.4 mm 3 mps 757 mmHg 74%
    18:00 +24°C° 0.4 mm 3 mps 757 mmHg 77%
    19:00 +21°C° 0.9 mm 4 mps 757 mmHg 81%
    20:00 +19°C° 0.9 mm 4 mps 757 mmHg 84%
    21:00 +17°C° 0.9 mm 4 mps 757 mmHg 87%
    22:00 +17°C° 1.1 mm 4 mps 757 mmHg 87%
    23:00 +17°C° 1.1 mm 3 mps 758 mmHg 87%
    Show more